Tracking 35237 objects as of 5-Sep-2026
HD Live streaming from Space Station
objects crossing your sky now

CONNECTA IOT-9

Track CONNECTA IOT-9 now!
10-day predictions
CONNECTA IOT-9 is classified as:


NORAD ID: 64534
Int'l Code: 2025-135G
Launch date: June 23, 2025
Source: Turkey (TURK)
Launch site: AIR FORCE WESTERN TEST RANGE (AFWTR)

Uplink (MHz):
Downlink (MHz): 401.510
Beacon (MHz):
Mode: 4k8 GMSK
Call sign: CNT009
Status: Active

Your satellite tracking list
Your tracking list is empty




NASA's NSSDC Master Catalog

Two Line Element Set (TLE):
1 64534U 25135G   26247.56804313  .00002814  00000-0  13183-3 0  9993
2 64534  97.4802   1.7729 0003554 242.3668 117.7207 15.20540031 66882
Source of the keplerian elements: AFSPC